Temp
40 39 39 38 37 38 38 36 36 35 35 34 34 35 35 35 35 34 33 33 32 31 31 30 30 30 31 29 29 30 30 29 29 28 28 28 27 27 29 28 28 29
39 38 37 37 35 36 35 36 35 35 34 34 33 33 34 34 33 33 32 31 31 30 30 30 29 29 28 28 27 27 27 27 27 30 27 27 27 27 28 28 28 29
39 38 37 37 36 35 35 34 34 34 34 33 33 33 33 33 32 32 31 30 30 30 29 29 28 27 27 26 26 26 26 25 26 26 27 26 27 27 28 28 28 28
39 39 38 37 36 35 34 34 33 32 32 32 32 32 32 32 31 30 29 30 28 27 27 26 26 26 26 26 26 26 25 26 25 25 26 26 26 26 27 28 28 28
39 38 37 37 36 35 34 34 32 32 32 31 31 31 31 30 29 28 28 28 27 26 27 27 26 26 26 25 25 25 25 26 25 24 25 25 26 26 27 27 26 26
38 38 37 36 35 35 34 33 32 32 31 30 31 30 29 29 28 28 27 27 27 27 26 26 26 25 25 24 24 24 24 25 24 24 23 24 24 25 26 26 25 25
38 37 36 36 34 34 34 33 32 32 31 31 30 30 29 29 28 28 27 27 26 26 26 25 24 24 24 24 23 23 23 23 22 22 23 23 23 23 24 24 24 24
37 36 36 35 34 33 33 32 32 31 31 30 30 29 29 28 28 27 27 27 26 25 25 24 24 24 23 23 22 22 22 24 23 21 21 21 22 21 22 23 23 22
37 35 35 34 33 32 32 31 31 30 30 30 29 29 28 28 27 27 26 26 25 25 24 24 24 23 23 23 22 21 21 20 22 19 20 20 20 20 20 21 20 20
36 35 34 33 32 32 31 31 31 30 30 29 28 28 27 27 27 26 26 25 25 24 24 23 23 23 22 21 22 20 20 20 19 19 20 19 19 19 19 19 19 18
35 34 33 32 32 31 31 30 30 29 29 28 28 27 27 26 26 26 25 25 24 23 23 22 22 22 22 20 20 20 19 19 19 19 19 19 19 19 20 19 18 18
34 33 33 32 31 31 30 30 30 29 28 28 27 26 26 26 25 25 25 24 23 22 22 21 21 20 19 19 19 19 18 18 19 18 19 18 18 18 18 18 18 18
34 33 33 32 31 31 31 30 29 28 27 26 26 25 25 24 24 23 22 22 22 21 21 21 21 20 19 19 19 18 18 18 18 18 18 18 19 19 19 19 19 19
33 33 32 32 31 31 30 29 28 27 26 25 25 24 23 23 22 22 21 21 22 22 22 21 20 20 19 19 18 18 18 17 17 17 18 18 19 20 20 20 20 20
33 32 31 30 30 29 28 27 26 26 26 25 24 23 23 23 23 23 22 22 22 21 21 22 20 20 20 19 18 18 18 17 17 18 19 19 19 19 20 21 21 21
32 31 30 29 28 27 26 26 25 25 24 22 22 21 21 21 21 21 20 20 20 21 21 21 20 21 21 24 23 19 18 17 18 19 19 19 19 19 20 21 21 21
30 30 29 27 26 25 24 24 23 22 21 20 19 18 18 18 19 19 19 19 19 19 19 20 20 21 23 25 25 26 23 21 20 20 21 20 20 20 19 20 21 22
29 27 26 25 24 23 22 21 20 19 18 17 16 16 16 16 17 17 18 18 19 19 19 20 20 22 24 25 26 26 25 23 22 21 21 21 21 21 21 21 21 21
27 25 24 23 23 22 20 18 17 17 15 15 14 15 15 14 16 16 17 18 19 19 19 19 19 22 24 25 25 25 26 25 22 22 21 21 21 21 21 21 21 21
25 24 23 21 20 18 17 16 15 15 14 14 14 15 15 15 15 16 17 18 18 18 18 19 19 21 23 24 24 25 25 25 22 22 21 21 21 21 20 20 20 20
24 23 21 18 17 16 15 13 13 13 13 14 14 14 14 14 14 15 16 16 17 17 17 17 17 20 22 23 24 24 25 25 22 22 21 20 20 21 21 21 21 22
23 21 18 16 16 14 13 13 13 13 13 14 14 14 14 15 15 15 15 15 15 15 14 14 15 19 21 22 23 23 24 22 21 20 19 19 19 21 21 22 23 22
23 20 16 15 14 13 13 13 13 13 13 14 13 14 14 14 14 15 15 14 14 14 13 13 13 17 19 21 22 23 23 20 20 19 19 19 19 20 21 22 23 23
21 18 16 14 13 12 12 13 13 13 13 13 13 14 13 14 14 13 14 14 13 13 13 12 12 15 19 20 22 23 23 20 20 19 18 19 19 20 21 22 23 26
20 18 16 14 13 13 13 12 12 12 13 13 13 14 13 14 13 12 12 13 13 13 15 14 12 14 19 20 22 23 22 21 20 19 18 18 19 20 22 22 23 25
18 17 15 14 13 13 13 13 13 12 12 12 12 12 12 12 12 12 11 12 13 13 12 13 13 13 15 20 22 23 24 21 20 19 17 18 19 20 20 21 23 22
MSLP
1012.86 1013.18 1013.46 1013.82 1014.18 1014.50 1014.90 1015.26 1015.66 1015.94 1016.30 1016.62 1016.94 1017.26 1017.50 1017.82 1018.10 1018.46 1018.90 1019.30 1019.66 1019.98 1020.30 1020.54 1020.70 1020.82 1020.94 1021.10 1021.26 1021.38 1021.42 1021.46 1021.38 1021.34 1021.38 1021.38 1021.42 1021.46 1021.46 1021.46 1021.50 1021.54
1012.26 1012.74 1013.22 1013.62 1013.98 1014.26 1014.58 1014.78 1015.18 1015.50 1015.94 1016.26 1016.62 1016.94 1017.26 1017.54 1017.90 1018.26 1018.74 1019.18 1019.54 1019.94 1020.22 1020.46 1020.58 1020.66 1020.78 1020.94 1021.06 1021.14 1021.22 1021.26 1021.22 1021.22 1021.26 1021.26 1021.30 1021.34 1021.34 1021.34 1021.38 1021.42
1011.86 1012.26 1012.66 1012.94 1013.30 1013.74 1014.10 1014.54 1014.86 1015.30 1015.70 1016.10 1016.50 1016.78 1017.06 1017.42 1017.74 1018.14 1018.54 1018.94 1019.34 1019.70 1020.02 1020.26 1020.38 1020.46 1020.58 1020.70 1020.82 1020.94 1021.02 1021.10 1021.14 1021.18 1021.22 1021.22 1021.22 1021.26 1021.26 1021.26 1021.30 1021.22
1011.38 1011.58 1011.98 1012.54 1013.02 1013.42 1013.90 1014.30 1014.74 1015.18 1015.62 1016.02 1016.30 1016.62 1016.94 1017.26 1017.58 1017.94 1018.30 1018.62 1019.02 1019.42 1019.78 1020.06 1020.22 1020.34 1020.42 1020.50 1020.62 1020.74 1020.86 1020.94 1021.06 1021.14 1021.14 1021.10 1021.06 1021.14 1021.10 1021.18 1021.10 1021.02
1010.94 1011.38 1011.78 1012.22 1012.70 1013.22 1013.62 1013.98 1014.34 1014.78 1015.18 1015.62 1016.10 1016.42 1016.74 1017.10 1017.50 1017.82 1018.10 1018.42 1018.82 1019.26 1019.58 1019.82 1019.98 1020.10 1020.18 1020.30 1020.38 1020.54 1020.66 1020.78 1020.90 1020.94 1020.98 1020.94 1020.94 1021.02 1020.98 1021.06 1020.98 1020.90
1010.94 1011.26 1011.58 1011.94 1012.34 1012.78 1013.30 1013.62 1013.98 1014.42 1014.86 1015.34 1015.66 1016.10 1016.46 1016.86 1017.30 1017.62 1017.94 1018.30 1018.66 1019.02 1019.26 1019.46 1019.62 1019.78 1019.90 1020.06 1020.18 1020.26 1020.42 1020.62 1020.70 1020.78 1020.82 1020.86 1020.98 1021.02 1021.02 1020.98 1020.90 1020.82
1010.34 1010.98 1011.38 1011.74 1012.18 1012.50 1012.90 1013.30 1013.74 1014.10 1014.50 1014.86 1015.42 1015.82 1016.22 1016.66 1017.06 1017.46 1017.82 1018.14 1018.46 1018.70 1018.94 1019.14 1019.30 1019.46 1019.66 1019.82 1019.94 1020.10 1020.34 1020.54 1020.62 1020.70 1020.74 1020.86 1020.98 1021.02 1021.02 1021.02 1020.94 1020.82
1010.06 1010.70 1011.22 1011.58 1011.90 1012.30 1012.62 1013.06 1013.42 1013.78 1014.18 1014.66 1015.02 1015.54 1015.94 1016.42 1016.86 1017.30 1017.70 1018.06 1018.30 1018.50 1018.70 1018.90 1019.06 1019.26 1019.50 1019.66 1019.86 1020.10 1020.34 1020.42 1020.50 1020.54 1020.66 1020.78 1020.94 1020.98 1021.02 1021.06 1021.02 1020.94
1009.74 1010.34 1010.82 1011.26 1011.62 1011.98 1012.34 1012.74 1013.14 1013.50 1013.82 1014.18 1014.74 1015.26 1015.82 1016.26 1016.74 1017.22 1017.66 1017.98 1018.22 1018.38 1018.58 1018.82 1018.98 1019.18 1019.38 1019.54 1019.78 1019.98 1020.18 1020.30 1020.30 1020.42 1020.54 1020.74 1020.90 1020.98 1021.06 1021.06 1021.06 1020.98
1009.30 1009.98 1010.58 1010.98 1011.30 1011.62 1012.06 1012.46 1012.86 1013.30 1013.66 1014.06 1014.54 1015.10 1015.62 1016.22 1016.70 1017.18 1017.62 1017.90 1018.14 1018.30 1018.54 1018.74 1018.94 1019.10 1019.26 1019.42 1019.62 1019.82 1020.06 1020.18 1020.26 1020.38 1020.46 1020.66 1020.82 1020.94 1020.98 1021.06 1021.06 1021.02
1008.94 1009.66 1010.18 1010.62 1010.94 1011.38 1011.78 1012.26 1012.70 1013.18 1013.66 1014.06 1014.62 1015.18 1015.74 1016.34 1016.94 1017.34 1017.66 1017.94 1018.14 1018.30 1018.54 1018.70 1018.90 1019.06 1019.18 1019.34 1019.50 1019.70 1019.94 1020.10 1020.22 1020.30 1020.42 1020.58 1020.74 1020.82 1020.82 1020.90 1020.94 1020.90
1008.62 1009.30 1009.78 1010.14 1010.58 1011.10 1011.54 1012.02 1012.58 1013.10 1013.70 1014.34 1014.86 1015.50 1016.10 1016.66 1017.06 1017.42 1017.66 1017.90 1018.10 1018.30 1018.46 1018.70 1018.86 1019.02 1019.18 1019.34 1019.50 1019.70 1019.86 1020.02 1020.10 1020.22 1020.38 1020.50 1020.62 1020.66 1020.70 1020.78 1020.74 1020.58
1008.22 1008.66 1009.26 1009.90 1010.42 1010.90 1011.46 1011.98 1012.46 1013.02 1013.62 1014.26 1014.90 1015.54 1016.14 1016.70 1017.14 1017.50 1017.74 1018.02 1018.18 1018.38 1018.58 1018.82 1019.02 1019.14 1019.26 1019.38 1019.50 1019.62 1019.78 1019.94 1020.06 1020.18 1020.30 1020.42 1020.38 1020.38 1020.42 1020.42 1020.30 1020.14
1007.94 1008.66 1009.38 1009.98 1010.58 1011.06 1011.46 1011.90 1012.42 1013.02 1013.66 1014.34 1014.98 1015.62 1016.18 1016.70 1017.14 1017.54 1017.94 1018.22 1018.42 1018.58 1018.82 1018.98 1019.18 1019.26 1019.30 1019.34 1019.42 1019.50 1019.66 1019.82 1019.94 1020.06 1020.18 1020.18 1020.14 1020.14 1020.10 1019.98 1019.78 1019.58
1008.06 1008.78 1009.38 1010.02 1010.58 1011.06 1011.50 1011.94 1012.46 1012.98 1013.62 1014.26 1014.98 1015.62 1016.18 1016.70 1017.18 1017.62 1018.02 1018.34 1018.58 1018.86 1019.06 1019.18 1019.26 1019.26 1019.26 1019.30 1019.38 1019.42 1019.50 1019.66 1019.78 1019.94 1019.94 1019.90 1019.82 1019.82 1019.70 1019.50 1019.22 1018.94
1008.06 1008.62 1009.22 1009.86 1010.46 1010.98 1011.46 1011.94 1012.42 1012.98 1013.58 1014.26 1014.94 1015.54 1016.18 1016.74 1017.26 1017.70 1018.10 1018.46 1018.78 1019.02 1019.22 1019.34 1019.30 1019.26 1019.22 1019.10 1019.06 1019.26 1019.38 1019.46 1019.58 1019.62 1019.62 1019.58 1019.50 1019.34 1019.06 1018.86 1018.62 1018.42
1008.02 1008.50 1009.14 1009.74 1010.34 1010.90 1011.42 1011.82 1012.42 1013.02 1013.70 1014.38 1015.02 1015.66 1016.26 1016.78 1017.30 1017.78 1018.10 1018.42 1018.74 1018.98 1019.14 1019.18 1019.14 1019.14 1019.06 1018.86 1018.66 1018.54 1018.74 1019.02 1019.14 1019.10 1019.06 1019.06 1018.98 1018.82 1018.62 1018.38 1018.10 1017.86
1007.58 1008.22 1008.86 1009.54 1010.18 1010.74 1011.22 1011.78 1012.38 1013.06 1013.74 1014.42 1015.10 1015.74 1016.26 1016.78 1017.26 1017.62 1017.94 1018.22 1018.50 1018.70 1018.82 1018.82 1018.86 1018.86 1018.78 1018.62 1018.46 1018.38 1018.42 1018.62 1018.74 1018.70 1018.66 1018.54 1018.42 1018.38 1018.26 1018.06 1017.74 1017.42
1007.26 1007.94 1008.54 1009.22 1009.78 1010.38 1011.06 1011.70 1012.26 1012.98 1013.74 1014.46 1015.14 1015.74 1016.34 1016.90 1017.22 1017.54 1017.82 1018.02 1018.18 1018.30 1018.42 1018.46 1018.58 1018.62 1018.50 1018.34 1018.26 1018.22 1018.26 1018.34 1018.34 1018.30 1018.22 1018.06 1018.02 1018.06 1017.98 1017.74 1017.42 1017.06
1007.14 1007.74 1008.38 1009.02 1009.74 1010.38 1010.94 1011.46 1012.10 1012.90 1013.74 1014.50 1015.14 1015.74 1016.22 1016.66 1017.02 1017.38 1017.58 1017.78 1017.90 1018.02 1018.10 1018.18 1018.26 1018.34 1018.22 1018.02 1017.98 1017.98 1018.06 1018.06 1018.06 1017.98 1017.74 1017.66 1017.78 1017.86 1017.74 1017.46 1017.06 1016.70
1007.10 1007.70 1008.42 1009.30 1009.98 1010.46 1010.94 1011.38 1011.94 1012.78 1013.50 1014.10 1014.62 1015.06 1015.58 1016.02 1016.42 1016.82 1017.06 1017.30 1017.50 1017.62 1017.82 1017.94 1018.02 1018.02 1017.82 1017.66 1017.62 1017.66 1017.70 1017.74 1017.70 1017.58 1017.58 1017.62 1017.66 1017.54 1017.26 1016.90 1016.54 1016.18
1006.66 1007.50 1008.50 1009.38 1010.10 1010.62 1011.02 1011.58 1012.10 1012.54 1013.10 1013.70 1014.26 1014.74 1015.26 1015.62 1016.06 1016.38 1016.66 1016.90 1017.10 1017.38 1017.62 1017.70 1017.70 1017.62 1017.46 1017.30 1017.26 1017.34 1017.38 1017.42 1017.42 1017.42 1017.38 1017.30 1017.18 1016.94 1016.62 1016.30 1015.94 1015.50
1006.22 1007.22 1008.38 1009.22 1009.98 1010.58 1011.26 1011.78 1012.30 1012.82 1013.26 1013.62 1014.10 1014.58 1014.98 1015.34 1015.66 1015.82 1016.14 1016.50 1016.86 1017.10 1017.34 1017.42 1017.42 1017.38 1017.18 1017.02 1016.94 1016.94 1016.98 1017.06 1017.02 1016.98 1016.94 1016.86 1016.62 1016.34 1016.02 1015.70 1015.30 1014.82
1005.74 1006.66 1007.62 1008.54 1009.22 1009.58 1010.22 1010.94 1011.50 1012.02 1012.50 1012.90 1013.30 1013.82 1014.50 1014.90 1015.26 1015.70 1016.02 1016.34 1016.62 1016.78 1016.86 1017.06 1017.10 1017.06 1016.86 1016.66 1016.54 1016.46 1016.46 1016.50 1016.58 1016.58 1016.46 1016.30 1016.02 1015.74 1015.38 1014.94 1014.54 1014.22
1005.42 1006.14 1006.78 1007.54 1008.30 1008.82 1009.42 1010.22 1011.02 1011.62 1012.22 1012.82 1013.26 1013.70 1014.22 1014.66 1015.06 1015.50 1015.86 1016.10 1016.26 1016.42 1016.50 1016.62 1016.74 1016.70 1016.46 1016.26 1016.06 1015.98 1015.98 1016.06 1016.10 1016.10 1015.98 1015.74 1015.46 1014.98 1014.62 1014.26 1013.86 1013.58
1005.38 1006.06 1006.78 1007.42 1008.18 1008.86 1009.46 1009.90 1010.58 1011.38 1012.02 1012.62 1013.18 1013.62 1014.06 1014.62 1015.10 1015.54 1015.94 1016.06 1016.18 1016.34 1016.50 1016.46 1016.50 1016.46 1016.30 1015.90 1015.62 1015.50 1015.46 1015.54 1015.58 1015.58 1015.50 1015.22 1014.82 1014.38 1013.90 1013.62 1013.46 1013.34
Wind_Speed
11 9 11 10 9 9 10 10 9 9 8 8 8 8 8 7 7 7 6 6 5 4 4 4 4 3 3 3 3 3 4 4 5 4 4 5 5 5 6 6 6 6
13 11 9 9 8 8 8 9 10 10 9 8 8 8 7 7 6 7 6 6 4 4 4 4 4 3 3 3 3 3 3 4 5 3 3 4 5 4 6 6 7 7
12 12 13 13 12 11 11 9 9 9 9 8 7 7 7 7 7 6 6 6 5 5 4 4 3 3 3 3 3 3 3 3 4 3 3 5 4 5 5 6 6 7
14 14 13 12 11 12 10 10 8 8 8 8 8 8 7 7 7 7 6 6 5 4 3 3 3 3 3 3 3 3 3 4 3 3 4 4 4 4 7 6 7 8
15 13 12 11 10 10 10 11 11 10 10 9 8 8 8 8 7 7 6 5 5 4 4 5 4 4 3 3 3 3 3 4 3 3 4 5 4 5 6 5 7 8
12 11 11 12 12 13 11 12 11 11 10 9 10 8 7 7 7 6 6 6 5 6 5 5 4 3 3 3 3 3 3 4 3 3 3 4 4 4 5 6 7 9
15 13 13 11 11 12 12 11 10 10 10 9 8 8 8 8 7 7 6 7 6 5 5 4 4 3 3 3 3 3 3 3 3 3 4 5 5 7 6 7 7 9
14 11 12 11 12 12 12 11 11 10 10 9 9 8 8 8 7 6 6 6 5 5 5 4 4 4 3 3 3 3 3 3 4 3 4 5 5 7 6 5 7 9
13 13 13 13 13 12 12 11 11 10 10 11 9 8 7 7 7 7 6 6 5 5 4 4 4 4 3 3 3 3 4 3 3 3 4 5 6 7 7 6 8 9
15 13 14 14 14 12 13 11 11 10 9 9 9 8 8 7 6 6 6 5 5 5 4 4 4 3 3 3 3 3 3 4 3 3 4 5 6 7 6 7 8 9
15 14 15 14 14 12 13 12 11 10 9 9 9 8 7 7 5 5 5 5 6 5 4 4 4 4 3 3 2 2 3 3 4 4 4 5 6 7 7 8 8 9
15 14 16 16 14 13 13 12 11 10 9 7 8 8 6 6 6 5 6 5 4 4 4 3 3 3 3 3 3 3 3 3 4 4 5 6 6 7 7 8 9 9
15 16 14 14 13 12 11 10 10 10 10 9 8 8 8 7 5 5 4 5 3 3 3 3 3 3 3 3 3 3 4 4 4 5 6 6 6 7 8 9 9 9
14 12 12 11 10 10 11 10 10 10 9 8 8 8 8 7 6 6 3 3 3 2 2 2 3 3 3 4 4 4 4 4 4 5 6 6 7 9 10 11 12 12
11 10 10 10 10 10 11 10 10 10 10 9 8 7 6 6 6 5 5 3 3 3 3 3 3 4 4 4 4 5 4 4 5 6 7 9 10 11 11 12 12 12
11 10 11 11 11 11 11 11 10 10 10 9 8 8 7 6 6 4 4 4 4 5 5 5 5 5 7 13 10 6 4 4 5 7 9 9 10 12 13 13 13 12
12 12 12 12 11 11 10 11 11 10 10 10 9 8 7 7 6 6 5 5 5 5 6 6 6 5 11 12 12 12 8 6 7 7 8 10 10 10 10 12 12 13
13 12 13 12 12 12 12 11 11 11 10 11 10 9 6 5 6 6 6 6 5 6 6 6 5 8 12 12 12 12 11 7 7 7 7 8 10 10 12 11 13 13
13 14 14 13 13 13 12 12 12 12 12 10 8 6 6 6 6 7 6 6 6 6 6 6 6 9 12 12 12 12 13 11 7 7 8 7 9 11 12 12 12 12
14 14 14 13 13 13 13 14 14 11 7 7 7 7 7 7 6 6 5 6 6 6 5 5 6 8 12 12 11 12 13 12 7 8 7 6 9 11 11 12 13 12
14 14 14 13 13 13 13 14 14 10 10 9 9 9 9 8 8 8 7 6 5 5 4 5 5 10 11 12 12 12 13 12 6 5 7 8 9 12 12 12 13 14
16 15 14 14 13 13 13 11 9 9 11 9 8 7 7 6 6 7 7 7 6 4 4 6 6 11 12 11 12 11 13 7 5 7 7 8 9 11 11 12 14 14
16 16 15 14 15 13 8 9 11 9 8 8 9 8 8 8 8 7 7 6 6 6 6 7 6 9 11 11 10 11 9 5 6 6 7 8 9 10 10 11 12 14
17 18 18 17 16 14 12 11 9 8 9 10 10 10 9 8 7 5 5 5 7 7 7 6 5 8 11 11 10 11 9 6 5 6 8 8 9 9 10 10 13 21
16 17 18 19 14 12 10 12 11 10 9 7 6 6 7 7 6 6 6 5 6 6 9 9 6 8 12 11 10 9 8 5 6 6 8 8 9 10 9 9 9 11
15 16 15 16 17 14 8 9 9 9 9 9 7 6 6 6 5 5 5 4 4 4 4 6 7 6 8 11 9 9 10 6 4 6 8 9 10 9 9 8 9 10
Wind_Direction
179 179 177 176 175 172 167 166 167 162 164 162 161 165 162 156 143 143 147 146 155 166 182 192 193 196 195 204 211 223 226 228 238 229 232 239 248 248 256 256 257 251
180 175 170 166 167 167 167 163 162 162 164 162 158 151 149 142 144 143 149 155 163 177 185 194 197 193 199 202 215 224 239 241 251 243 242 250 254 257 259 259 259 256
176 177 174 175 175 171 166 161 156 159 159 159 151 149 148 144 144 147 155 158 169 178 188 190 188 190 193 202 210 220 233 247 257 256 251 251 256 255 260 265 263 262
184 182 178 176 170 168 163 155 155 152 149 152 162 157 149 149 146 152 154 159 162 173 178 185 190 198 201 210 213 229 231 243 243 245 256 260 258 259 265 262 262 263
184 182 178 173 169 162 160 162 162 160 160 160 151 152 148 148 152 156 155 161 162 180 186 192 191 196 196 201 214 231 240 245 251 249 255 264 257 259 264 262 267 266
187 183 178 173 169 164 166 167 166 161 158 158 163 154 153 149 154 157 160 169 177 178 187 185 189 190 185 202 216 226 234 251 257 252 261 264 275 272 276 274 274 274
184 179 178 171 166 169 166 167 164 162 163 159 145 158 152 155 159 163 165 171 174 177 181 188 183 193 191 198 207 220 231 237 249 258 265 268 273 272 270 279 281 282
180 176 173 171 167 167 166 165 163 162 158 151 156 156 153 156 159 159 165 170 174 183 185 185 191 190 200 194 211 221 240 229 237 244 254 266 267 271 274 273 280 279
172 176 173 172 170 169 167 165 163 159 156 153 152 154 150 155 158 159 165 169 176 183 185 192 195 199 198 198 205 212 230 242 245 243 255 263 267 270 274 277 277 275
177 174 172 175 175 173 168 166 161 157 152 149 148 147 151 152 153 159 161 174 182 187 189 193 194 197 199 197 200 209 233 249 249 254 260 262 266 269 272 274 273 277
176 173 177 178 177 172 169 162 159 153 151 149 144 147 146 143 150 155 165 176 188 190 197 197 197 197 199 195 198 201 222 239 247 252 256 260 263 266 271 269 268 266
177 176 181 180 175 171 167 162 154 151 145 141 143 141 138 148 157 169 176 186 184 193 191 193 189 186 186 198 206 225 234 238 246 251 255 260 262 266 264 263 264 263
180 182 179 177 174 167 160 156 153 146 142 144 142 143 149 154 164 164 173 174 185 175 186 183 193 189 197 210 215 216 224 236 249 253 257 256 258 258 257 256 258 261
183 174 172 171 165 159 158 153 145 141 137 132 133 144 151 158 164 164 156 149 174 167 190 186 197 209 213 212 216 213 219 233 234 247 253 258 260 262 261 261 258 257
168 166 163 162 161 155 151 148 141 136 133 132 134 139 137 140 135 138 149 147 150 166 201 208 205 224 219 219 215 220 209 221 235 246 254 260 262 260 260 263 264 263
165 162 162 159 156 155 150 143 140 137 135 133 128 128 128 133 137 137 144 163 179 202 210 223 230 228 234 233 224 198 205 219 237 240 244 249 260 269 269 263 264 264
163 164 158 161 155 148 146 142 139 136 131 129 129 133 135 134 139 153 162 175 187 203 214 219 227 233 238 240 241 238 227 221 242 256 259 264 260 259 268 276 275 276
166 159 159 158 152 152 148 141 134 135 133 123 128 131 137 135 148 165 169 179 190 202 213 221 232 242 246 249 249 249 251 252 255 255 252 249 270 274 277 278 282 281
161 160 160 158 158 151 146 142 141 131 121 131 137 131 133 147 162 165 177 183 193 199 211 222 231 247 254 256 257 258 259 261 260 259 265 258 264 273 279 283 284 281
163 162 161 158 152 147 145 132 127 123 119 115 124 135 148 155 162 167 174 184 191 199 213 230 238 247 257 259 260 261 263 267 266 265 261 265 280 285 280 278 275 276
164 163 159 153 151 149 145 136 130 129 139 147 151 156 157 161 164 168 178 175 186 195 205 235 241 250 255 258 260 265 269 275 272 283 293 283 276 278 277 274 280 280
165 162 157 154 150 136 128 137 136 142 144 144 141 138 142 145 156 163 173 179 181 175 202 233 241 250 258 259 264 268 274 275 279 279 268 266 264 269 272 280 279 277
167 160 157 156 141 134 135 135 142 138 136 139 140 148 153 161 165 167 171 172 179 184 202 231 239 251 259 262 261 268 277 268 260 260 266 267 268 268 271 271 274 278
166 161 159 159 157 152 149 148 138 135 145 153 150 152 158 159 157 151 167 176 187 191 202 221 232 250 256 258 262 265 272 271 273 269 268 272 273 269 270 273 275 288
166 165 163 162 157 149 142 141 145 146 143 137 134 130 140 147 153 160 172 185 192 191 214 227 231 240 252 255 260 267 274 265 263 268 272 276 280 279 276 275 278 292
166 165 163 160 158 130 136 130 131 129 138 139 140 137 141 142 148 159 172 181 184 189 214 231 239 235 240 249 258 270 279 278 263 274 280 279 282 284 294 295 299 303